Date String (YYYY-MM-DD hh:mm:ss) UTC,Instrument flags,Ambient pressure (hPa),Sample flow (lpm),Bypass flow (lpm),Sample temperature (°C),Ambient temperature (°C),ASC tube jacket temperature (°C),LED temperature (°C),Box temperature (°C),Sample RH (%),Span deviation,Mass concentration (μg/m³),Mass concentration (μg/m³),Mass concentration (μg/m³)
DateTimeUTC,F1_M11,P_M11,Q1_M11,Q2_M11,T1_M11,T2_M11,T3_M11,T4_M11,T5_M11,U1_M11,ZSPAN_M11,X0_M11,X2_M11,X1_M11
2022-05-20 08:00:00,,0815.0,5.00,0.00,26.9,25.7,00.0,36.0,28.6,15.4,0000.0,0010.38,0003.02,0001.77
2022-05-20 08:01:00,,0815.0,4.99,0.00,26.9,25.7,00.0,36.0,28.6,15.4,0000.0,0009.99,0002.95,0001.77
2022-05-20 08:02:00,,0814.9,5.00,0.00,26.8,25.6,00.0,35.9,28.6,15.4,0000.0,0009.69,0002.96,0001.77
2022-05-20 08:03:00,,0814.9,5.01,0.00,26.8,25.6,00.0,35.9,28.6,15.4,0000.0,0009.41,0002.88,0001.77
2022-05-20 08:04:00,,0814.9,4.99,0.00,26.8,25.6,00.0,35.9,28.6,15.4,0000.0,0009.22,0002.85,0001.77
2022-05-20 08:05:00,,0815.1,5.00,0.00,26.8,25.6,00.0,35.9,28.6,15.4,0000.0,0008.74,0002.82,0001.78
2022-05-20 08:06:00,,0815.0,5.00,0.00,26.8,25.6,00.0,35.9,28.6,15.4,0000.0,0009.02,0002.79,0001.78
2022-05-20 08:07:00,,0815.2,5.00,0.00,26.8,25.7,00.0,35.9,28.6,15.4,0000.0,0008.60,0002.79,0001.79
2022-05-20 08:08:00,,0815.4,5.00,0.00,26.8,25.7,00.0,35.9,28.7,15.5,0000.0,0008.42,0002.80,0001.79
2022-05-20 08:09:00,,0815.3,5.00,0.00,26.8,25.7,00.0,35.9,28.6,15.5,0000.0,0008.36,0002.78,0001.80
2022-05-20 08:10:00,,0815.6,4.99,0.00,26.8,25.7,00.0,35.9,28.6,15.5,0000.0,0008.12,0002.74,0001.80
2022-05-20 08:11:00,,0815.2,5.01,0.00,26.8,25.7,00.0,35.9,28.6,15.5,0000.0,0007.03,0002.64,0001.79
2022-05-20 08:12:00,,0815.2,5.00,0.00,26.8,25.7,00.0,35.9,28.6,15.5,0000.0,0006.54,0002.63,0001.79
2022-05-20 08:13:00,,0815.1,4.99,0.00,26.8,25.7,00.0,35.9,28.7,15.5,0000.0,0006.07,0002.66,0001.80
2022-05-20 08:14:00,,0815.2,5.01,0.00,26.9,25.7,00.0,35.9,28.7,15.5,0000.0,0006.09,0002.71,0001.82
2022-05-20 08:15:00,,0815.1,4.99,0.00,26.9,25.8,00.0,35.9,28.7,15.5,0000.0,0006.03,0002.75,0001.83
2022-05-20 08:16:00,,0815.1,5.00,0.00,26.9,25.7,00.0,35.9,28.7,15.5,0000.0,0005.70,0002.74,0001.83
2022-05-20 08:17:00,,0815.0,5.01,0.00,26.9,25.7,00.0,35.9,28.7,15.6,0000.0,0004.75,0002.73,0001.83
2022-05-20 08:18:00,,0815.0,5.01,0.00,26.9,25.8,00.0,35.8,28.7,15.6,0000.0,0005.37,0002.75,0001.83
2022-05-20 08:19:00,,0815.0,4.99,0.00,26.9,25.8,00.0,35.8,28.7,15.6,0000.0,0005.43,0002.74,0001.85
2022-05-20 08:20:00,,0815.0,5.01,0.00,26.9,25.8,00.0,35.8,28.7,15.6,0000.0,0005.37,0002.74,0001.88
2022-05-20 08:21:00,,0815.0,5.00,0.00,26.9,25.8,00.0,35.8,28.7,15.6,0000.0,0006.57,0002.77,0001.92
2022-05-20 08:22:00,,0815.1,4.99,0.00,26.9,25.8,00.0,35.9,28.7,15.6,0000.0,0006.82,0002.85,0001.97
2022-05-20 08:23:00,,0815.0,5.00,0.00,26.9,25.8,00.0,35.8,28.6,15.6,0000.0,0007.48,0002.91,0002.01
2022-05-20 08:24:00,,0815.1,4.98,0.00,26.8,25.7,00.0,35.8,28.6,15.6,0000.0,0007.63,0002.97,0002.03
2022-05-20 08:25:00,,0815.1,5.01,0.00,26.8,25.7,00.0,35.8,28.6,15.6,0000.0,0007.66,0002.99,0002.06
2022-05-20 08:26:00,,0815.2,4.99,0.00,26.8,25.7,00.0,35.8,28.6,15.6,0000.0,0007.75,0003.02,0002.08
2022-05-20 08:27:00,,0815.2,5.01,0.00,26.8,25.7,00.0,35.8,28.6,15.6,0000.0,0007.92,0003.03,0002.10
2022-05-20 08:28:00,,0815.2,5.00,0.00,26.8,25.7,00.0,35.8,28.6,15.7,0000.0,0007.89,0003.04,0002.12
2022-05-20 08:29:00,,0815.1,5.01,0.00,26.8,25.7,00.0,35.8,28.6,15.7,0000.0,0007.59,0003.05,0002.13
2022-05-20 08:30:00,,0815.0,4.99,0.00,26.8,25.7,00.0,35.8,28.6,15.7,0000.0,0007.60,0003.07,0002.15
2022-05-20 08:31:00,,0815.2,5.00,0.00,26.8,25.7,00.0,35.8,28.7,15.6,0000.0,0009.08,0003.11,0002.17
2022-05-20 08:32:00,,0815.3,4.99,0.00,26.8,25.7,00.0,35.8,28.7,15.6,0000.0,0009.59,0003.11,0002.18
2022-05-20 08:33:00,,0815.3,5.01,0.00,26.8,25.7,00.0,35.8,28.6,15.6,0000.0,0009.89,0003.09,0002.18
2022-05-20 08:34:00,,0815.3,5.00,0.00,26.8,25.7,00.0,35.8,28.6,15.7,0000.0,0009.47,0003.09,0002.21
2022-05-20 08:35:00,,0815.3,4.99,0.00,26.8,25.7,00.0,35.8,28.6,15.7,0000.0,0009.38,0003.11,0002.24
2022-05-20 08:36:00,,0815.3,5.00,0.00,26.8,25.7,00.0,35.8,28.6,15.7,0000.0,0009.40,0003.12,0002.24
2022-05-20 08:37:00,,0815.3,5.01,0.00,26.8,25.7,00.0,35.8,28.7,15.7,0000.0,0009.30,0003.07,0002.23
2022-05-20 08:38:00,,0815.4,4.99,0.00,26.8,25.7,00.0,35.8,28.7,15.7,0000.0,0009.15,0003.04,0002.21
2022-05-20 08:39:00,,0815.4,5.00,0.00,26.8,25.7,00.0,35.8,28.7,15.7,0000.0,0009.31,0003.07,0002.21
2022-05-20 08:40:00,,0815.4,5.01,0.00,26.8,25.7,00.0,35.8,28.7,15.7,0000.0,0009.24,0003.07,0002.23
2022-05-20 08:41:00,,0815.7,4.99,0.00,26.9,25.7,00.0,35.8,28.7,15.7,0000.0,0009.09,0003.02,0002.23
2022-05-20 08:42:00,,0816.1,5.00,0.00,26.9,25.7,00.0,35.8,28.7,15.7,0000.0,0007.72,0002.99,0002.21
2022-05-20 08:43:00,,0815.6,5.01,0.00,26.9,25.7,00.0,35.8,28.7,15.7,0000.0,0005.94,0003.00,0002.21
2022-05-20 08:44:00,,0815.7,4.99,0.00,26.9,25.8,00.0,35.8,28.7,15.7,0000.0,0005.18,0003.05,0002.20
2022-05-20 08:45:00,,0815.7,5.00,0.00,26.9,25.8,00.0,35.8,28.8,15.7,0000.0,0005.36,0003.08,0002.18
2022-05-20 08:46:00,,0816.1,4.99,0.00,26.9,25.8,00.0,35.8,28.7,15.7,0000.0,0005.53,0003.00,0002.16
2022-05-20 08:47:00,,0815.6,5.00,0.00,26.9,25.8,00.0,35.8,28.8,15.7,0000.0,0005.63,0002.93,0002.16
2022-05-20 08:48:00,,0815.4,5.00,0.00,26.9,25.8,00.0,35.8,28.7,15.7,0000.0,0005.96,0002.93,0002.17
2022-05-20 08:49:00,,0815.3,4.99,0.00,26.9,25.8,00.0,35.8,28.7,15.8,0000.0,0005.80,0002.92,0002.18
2022-05-20 08:50:00,,0815.3,5.00,0.00,26.9,25.8,00.0,35.8,28.7,15.8,0000.0,0005.50,0002.90,0002.19
2022-05-20 08:51:00,,0815.3,5.01,0.00,26.9,25.8,00.0,35.8,28.7,15.8,0000.0,0005.41,0002.87,0002.18
2022-05-20 08:52:00,,0815.4,5.01,0.00,26.9,25.7,00.0,35.8,28.7,15.9,0000.0,0005.69,0002.93,0002.18
2022-05-20 08:53:00,,0815.4,5.00,0.00,26.8,25.7,00.0,35.8,28.6,15.9,0000.0,0005.69,0002.93,0002.18
2022-05-20 08:54:00,,0815.3,4.99,0.00,26.8,25.7,00.0,35.8,28.6,15.9,0000.0,0005.61,0002.91,0002.17
2022-05-20 08:55:00,,0815.3,5.00,0.00,26.8,25.7,00.0,35.8,28.6,16.0,0000.0,0005.66,0002.88,0002.18
2022-05-20 08:56:00,,0815.5,5.01,0.00,26.8,25.6,00.0,35.8,28.6,16.0,0000.0,0006.47,0002.82,0002.17
2022-05-20 08:57:00,,0815.3,5.00,0.00,26.8,25.6,00.0,35.8,28.6,16.0,0000.0,0006.77,0002.80,0002.16
2022-05-20 08:58:00,,0815.4,4.99,0.00,26.8,25.6,00.0,35.8,28.6,16.1,0000.0,0006.39,0002.80,0002.15
2022-05-20 08:59:00,,0815.7,5.01,0.00,26.8,25.6,00.0,35.8,28.6,16.1,0000.0,0006.89,0002.77,0002.13
